Location: Newark
(33.6439°N, 114.9881°W)
Time: 06:37:19
(UTC+00:00)

A-11 Canister half - Pass Details

Date: 23 August 2019
Orbit: 1527 x 1682 km, 47.3° (Epoch: 15 September)

Event Time Altitude Azimuth Distance (km) Brightness Sun altitude
Rises 20:10:18 0° 260° (W) 4,843 11.8 66.8°
Reaches altitude 10° 20:13:35 10° 266° (W) 3,877 11.4 66.6°
Maximum altitude 20:23:08 49° 339° (NNW) 2,073 10.2 65.8°
Drops below altitude 10° 20:32:54 10° 52° (NE) 3,947 11.0 64.9°
Sets 20:36:17 0° 58° (ENE) 4,936 11.4 64.5°
